CZ-3B DEB, 40161

Orbit data source: Space-Track

CZ-3B DEB, 40161 is space debris in HEO originally from a launch on Sat, 04 Sep 2010 UTC launched from the Xichang Space Center, China (XSC). Debris objects in space refer to the collection of defunct objects orbiting the Earth. Examples of debris include non-operational satellites, rocket bodies, and fragments generated from explosions, collisions, or faulty payload assembly.

Loading next visibility...
Identifier
40161, 2010-042N
Orbit
HEO
Country
Flag of CNCN / PRC
Related business
Manufacturer
CALT
Mission
Spacecraft
Bus & Motor
Unknown
Mass
Unknown
Launch date (UTC)
2010-09-04 (15 years ago)
Launch vehicle
Unknown
Launch site
Xichang Space Center, China (XSC)
Object type
Payload
Rocket body
Debris
Shape & HBR
Unknown shape, 0.1 m
Radar Cross Section
Medium (>0.1 m² and <1 m²)

Expand to show TLE details & history
Last TLE update: 4 months ago

TLE from 4 months ago
0 CZ-3B DEB
1 40161U 10042N   25180.28679712  .00000012  00000-0 -10697-1 0  9995
2 40161  27.8824 102.7691 7339110 205.6045 347.5134  1.99746403 84470
Epoch: 2025-06-29T06:52Z
TLE epoch observation values (Epoch: 2025-06-29T06:52:59.271Z)
Latitude
23.48042°
Longitude
-152.81362°
Altitude
4,949.474 km
Speed
7.445 km/s
True Right ascension
15h 12m 11s
True Declination
23° 24' 05"
Sunlit
Object was in daylight at epoch
Visualization orbit readout
Latitude
Unknown
Longitude
Unknown
Altitude
Unknown
Speed
Unknown
Apparent Right ascension
Unknown
Apparent Declination
Unknown
Sunlit
N/A
Visualization observer readout
Local Sidereal Time
20:49:46
Azimuth
Unknown
Elevation
Unknown
Doppler factor
Unknown
Orbital elements
Apogee altitude
39,806.842 km
Perigee altitude
709.49 km
Semi-major axis
26,636.303 km
Eccentricity
0.73391
Inclination
27.8824°
RAAN
102.7691°
Arg. of periapsis
205.6045°
True anomaly
275.96158°
Mean anomaly
347.5134°
Eccentric anomaly
321.11761°
Mean motion
0.49927 °/min
Orbital period
721.06 mins
BSTAR
-0.010697
Loading maneuver chart data...
Computing Atmospheric mass density...
Loading historical data...
Loading historical data...
Loading historical data...
Loading historical data...
Loading historical data...
Loading historical data...
Loading historical data...

Documentation

Showing up to 5 results
|